sat.trackr.live / text

‹ back to catalog

ONEWEB-0212

NORAD 48791 · 2021-045AA

PAYLOAD ACTIVE UNKNOWN

§ Identity

Operator
Country
UK
Launch date
2021-05-28
Launch site
VOSTO
Launch vehicle
Mass (kg)
RCS (m²)

Purposes: comms

External: N2YO · Heavens-Above · Gunter

§ Orbital elements

Epoch: 2026-05-24T16:59:48.499008Z

Period
109.46 min
Inclination
87.8999°
Eccentricity
0.0001886
Mean motion
13.15547760 rev/d
Perigee alt
1,200.3 km
Apogee alt
1,203.2 km
Semi-major
7,579.9 km
B*
1.4406e-4
RAAN
263.8646°
Arg perigee
101.9484°
Mean anomaly
258.1858°
Rev number
24,134

§ Raw data

ONEWEB-02121 48791U 21045AA  26144.70820022  .00000067  00000+0  14406-3 0  99992 48791  87.8999 263.8646 0001886 101.9484 258.1858 13.15547760241346

JSON: /api/v1/satellites/48791 · /tle

For live sub-satellite position, see the globe view (requires WebGL).

§ Visibility from observer

Set your observer location to see the next 7 days of passes ≥ 10°. The values pass through the URL so the page stays shareable.

No JS? Fill the form by hand. The geolocation button needs JavaScript.